Location: Unspecified
(0.0000°N, 0.0000°E)
Time: 18:44:36
(UTC+00:00)

FENGYUN 1C DEB - Pass Details

Date: 14 February 2026
Orbit: 819 x 963 km, 99.2° (Epoch: 3 October)

Event Time Altitude Azimuth Distance (km) Brightness Sun altitude
Rises 03:45:28 0° 148° (SSE) 3,539 ? -36.1°
Reaches altitude 10° 03:48:10 10° 139° (SE) 2,576 ? -35.4°
Maximum altitude 03:53:12 32° 77° (ENE) 1,471 ? -34.2°
Enters shadow 03:55:38 23° 35° (NE) 1,778 ? -33.6°
